Waarnemingen

Advertentie
Mijn weer
Arjeplog, Zweden (2124): temperatuur & dauwpunt: 11.08.2018 13:00:00 - 17.08.2018 13:00:00 (CEST)Arjeplog, Zweden (2124): windsnelheid & windstoten: 11.08.2018 13:00:00 - 17.08.2018 13:00:00 (CEST)Arjeplog, Zweden (2124): windrichting: 11.08.2018 13:00:00 - 17.08.2018 13:00:00 (CEST)Arjeplog, Zweden (2124): luchtdruk: 11.08.2018 13:00:00 - 17.08.2018 13:00:00 (CEST)Arjeplog, Zweden (2124): zicht: 11.08.2018 13:00:00 - 17.08.2018 13:00:00 (CEST)Arjeplog, Zweden (2124): neerslag: 11.08.2018 13:00:00 - 17.08.2018 13:00:00 (CEST)
Datum & Tijd tt [°C] td [°C] ff [km/u] ff [kn] fx [km/u] fx [kn] dd ppp [hPa] vv [km] rr [mm]
17.08.2018 13:00:00 17,3 8,7 16 9 29 16 WZW 1003,4 35 0,0
17.08.2018 12:00:00 16,3 9,7 13 7 28 15 WZW 1002,9 49 0,0
17.08.2018 11:00:00 16,5 11,2 14 8 26 14 ZZW 1002,4 40 0,0
17.08.2018 10:00:00 15,4 12,0 13 7 31 17 ZW 1002,4 46 0,0
17.08.2018 09:00:00 15,4 13,4 16 9 36 19 Z 1001,9 20 0,0
17.08.2018 08:00:00 15,3 13,1 18 10 41 22 Z 1001,5 32 0,0
17.08.2018 07:00:00 15,4 12,9 20 11 44 24 Z 1001,4 39 0,0
17.08.2018 06:00:00 15,3 12,8 17 9 33 18 ZZO 1001,5 39 0,0
17.08.2018 05:00:00 15,2 13,0 16 9 32 18 ZZO 1001,9 36 0,0
17.08.2018 04:00:00 15,2 13,0 16 9 33 18 ZZO 1002,4 39 0,0
17.08.2018 03:00:00 15,3 13,3 14 8 29 16 ZZO 1002,9 40 0,0
17.08.2018 02:00:00 15,5 13,3 14 7 30 16 ZZO 1003,2 45 0,0
17.08.2018 01:00:00 15,3 13,5 14 8 29 16 ZZO 1003,9 46 0,0
17.08.2018 00:00:00 14,9 13,4 14 8 28 15 ZZO 1004,4 40 0,0
16.08.2018 23:00:00 14,5 13,4 16 8 34 19 ZZO 1004,8 37 0,0
16.08.2018 22:00:00 14,3 13,5 16 9 31 17 ZZO 1005,3 9 0,2
16.08.2018 21:00:00 14,5 13,2 16 9 31 17 ZZO 1005,7 10 0,0
16.08.2018 20:00:00 14,8 13,2 16 8 29 16 ZZO 1006,1 30 0,0
16.08.2018 19:00:00 15,2 13,0 14 7 31 17 ZZO 1006,3 50 0,0
16.08.2018 18:00:00 15,4 12,7 10 6 23 12 ZZO 1006,8 42 0,0
16.08.2018 17:00:00 14,9 12,6 14 8 28 15 Z 1007,5 39 0,3
16.08.2018 16:00:00 15,0 12,3 14 7 29 16 Z 1007,4 19 0,2
16.08.2018 15:00:00 15,6 11,8 12 6 20 11 Z 1007,7 50 0,0
16.08.2018 14:00:00 15,3 11,7 7 4 16 9 Z 1007,8 47 0,0
16.08.2018 13:00:00 14,0 11,3 6 3 25 13 ZZO 1008,3 50 0,0
16.08.2018 12:00:00 13,5 10,7 14 8 30 16 Z 1008,6 48 0,0
16.08.2018 11:00:00 13,3 10,7 12 6 24 13 ZZO 1008,6 50 0,0
16.08.2018 10:00:00 13,2 10,6 12 7 23 13 ZZO 1008,8 27 0,0
16.08.2018 09:00:00 12,2 9,9 13 7 22 12 ZZO 1009,3 50 0,0
16.08.2018 08:00:00 12,2 10,3 8 5 22 12 ZZO 1009,4 42 0,0
16.08.2018 07:00:00 10,9 9,8 5 3 19 10 OZO 1009,8 48 0,0
16.08.2018 06:00:00 10,8 9,7 10 5 16 9 ZO 1009,8 39 0,0
16.08.2018 05:00:00 10,6 9,7 3 2 10 5 O 1010,0 36 0,0
16.08.2018 04:00:00 10,8 9,9 5 3 19 10 OZO 1010,0 39 0,0
16.08.2018 03:00:00 10,9 10,0 6 3 16 8 ZZO 1009,9 37 0,0
16.08.2018 02:00:00 10,7 10,1 6 4 17 9 ZO 1010,0 28 0,6
16.08.2018 01:00:00 10,2 9,7 7 4 14 8 ZO 1010,4 25 0,1
16.08.2018 00:00:00 10,6 10,3 6 4 10 6 O 1010,5 22 2,6
15.08.2018 23:00:00 10,7 10,1 6 3 16 8 OZO 1010,8 6 2,8
15.08.2018 22:00:00 12,4 9,0 6 3 17 9 ZO 1010,4 29 0,1
15.08.2018 21:00:00 12,9 8,2 6 4 17 9 ZZO 1010,3 49 0,0
15.08.2018 20:00:00 13,5 8,1 9 5 16 9 ZZO 1010,1 50 0,0
15.08.2018 19:00:00 13,8 8,4 9 5 21 11 ZZO 1010,1 50 0,0
15.08.2018 18:00:00 14,1 8,5 9 5 21 11 Z 1010,1 45 0,0
15.08.2018 17:00:00 14,0 8,4 13 7 27 14 Z 1010,3 44 0,0
15.08.2018 16:00:00 14,3 8,3 14 7 26 14 Z 1010,2 40 0,0
15.08.2018 15:00:00 14,4 8,3 18 10 29 16 ZZO 1010,2 36 0,0
15.08.2018 14:00:00 13,2 8,3 14 7 24 13 Z 1010,6 45 0,0
15.08.2018 13:00:00 12,0 7,9 15 8 23 13 ZZO 1010,5 43 0,0
15.08.2018 12:00:00 11,8 7,7 12 6 23 13 ZO 1010,6 41 0,0
15.08.2018 11:00:00 11,9 7,6 13 7 25 13 Z 1010,6 40 0,0
15.08.2018 10:00:00 11,4 7,1 14 8 22 12 ZZO 1010,6 50 0,0
15.08.2018 09:00:00 11,1 5,0 11 6 19 10 ZZO 1010,6 42 0,0
15.08.2018 08:00:00 11,0 7,5 9 5 19 10 ZO 1010,6 48 0,0
15.08.2018 07:00:00 10,2 6,2 7 4 13 7 ZZO 1010,9 37 0,0
15.08.2018 06:00:00 8,2 7,1 6 3 9 5 ZO 1011,1 50 0,0
15.08.2018 05:00:00 6,8 6,2 5 3 9 5 ZO 1011,4 50 0,0
15.08.2018 04:00:00 7,0 6,4 4 2 9 5 ZO 1011,5 50 0,0
15.08.2018 03:00:00 9,3 6,7 4 2 10 6 ZZO 1011,1 50 0,0
15.08.2018 02:00:00 9,5 6,9 5 3 11 6 ZZO 1011,0 50 0,0
15.08.2018 01:00:00 8,7 6,8 6 3 11 6 ZO 1011,1 50 0,0
15.08.2018 00:00:00 8,1 6,4 5 3 10 6 ZO 1011,2 50 0,0
14.08.2018 23:00:00 8,1 6,1 7 4 14 7 ZO 1011,1 50 0,0
14.08.2018 22:00:00 7,9 5,5 5 3 11 6 ZO 1011,1 50 0,0
14.08.2018 21:00:00 8,9 5,6 7 4 11 6 OZO 1010,8 50 0,0
14.08.2018 20:00:00 9,1 5,8 0 0 9 5 N 1010,6 50 0,0
14.08.2018 19:00:00 11,6 5,7 3 2 11 6 Z 1009,9 47 0,0
14.08.2018 18:00:00 13,0 3,9 8 4 14 8 ZW 1009,6 38 0,0
14.08.2018 17:00:00 13,1 3,7 9 5 15 8 ZZW 1009,6 43 0,0
14.08.2018 16:00:00 13,8 4,1 4 2 13 7 ZW 1009,5 38 0,0
14.08.2018 15:00:00 12,7 4,1 7 4 15 8 O 1009,8 34 0,0
14.08.2018 14:00:00 13,3 4,7 6 4 12 7 ONO 1009,7 36 0,0
14.08.2018 13:00:00 13,2 4,6 6 3 12 6 W 1009,7 31 0,0
14.08.2018 12:00:00 11,7 5,1 4 2 12 7 WNW 1009,9 41 0,0
14.08.2018 11:00:00 10,8 6,7 6 3 16 8 NNW 1010,0 32 0,0
14.08.2018 10:00:00 10,0 4,6 5 3 9 5 NO 1010,0 44 0,0
14.08.2018 09:00:00 9,7 4,9 5 3 13 7 N 1009,8 49 0,0
14.08.2018 08:00:00 9,1 5,5 6 3 14 8 NW 1009,9 49 0,0
14.08.2018 07:00:00 8,4 5,5 3 1 9 5 WNW 1009,8 47 0,0
14.08.2018 06:00:00 7,6 4,9 4 2 8 5 W 1009,9 50 0,0
14.08.2018 05:00:00 7,4 4,5 4 2 12 7 W 1009,7 50 0,0
14.08.2018 04:00:00 7,3 4,4 4 2 9 5 W 1009,4 50 0,0
14.08.2018 03:00:00 7,2 4,5 3 2 15 8 WZW 1009,3 50 0,0
14.08.2018 02:00:00 7,5 4,5 5 3 15 8 WNW 1008,9 50 0,0
14.08.2018 01:00:00 7,3 4,1 5 3 12 7 WNW 1008,8 50 0,0
14.08.2018 00:00:00 7,6 3,8 6 3 16 8 WZW 1008,5 50 0,0
13.08.2018 23:00:00 8,0 3,6 9 5 19 10 NW 1007,9 50 0,0
13.08.2018 22:00:00 8,4 3,6 9 5 25 13 NW 1007,8 50 0,0
13.08.2018 21:00:00 9,0 3,6 10 5 25 13 NW 1007,4 50 0,0
13.08.2018 20:00:00 9,6 4,6 9 5 25 13 NW 1006,9 50 0,0
13.08.2018 19:00:00 11,0 4,5 12 7 27 15 NW 1006,4 50 0,0
13.08.2018 18:00:00 11,1 4,1 13 7 34 18 NW 1006,3 50 0,0
13.08.2018 17:00:00 10,8 4,0 16 9 31 17 NW 1006,3 45 0,0
13.08.2018 16:00:00 11,6 4,1 16 9 34 18 NW 1005,9 43 0,0
13.08.2018 15:00:00 11,3 4,1 15 8 33 18 NW 1005,5 48 0,0
13.08.2018 14:00:00 11,9 4,1 14 8 35 19 WNW 1005,1 43 0,0
13.08.2018 13:00:00 12,7 5,1 14 8 30 16 NW 1004,5 36 0,0
13.08.2018 12:00:00 12,8 5,0 16 9 34 18 NW 1004,1 35 0,0
13.08.2018 11:00:00 11,9 4,4 15 8 33 18 NW 1003,9 41 0,0
13.08.2018 10:00:00 11,1 4,8 15 8 31 17 NW 1003,7 50 0,0
13.08.2018 09:00:00 10,4 5,2 11 6 35 19 NW 1003,4 48 0,0
13.08.2018 08:00:00 9,5 4,9 15 8 29 15 WNW 1003,2 48 0,0
13.08.2018 07:00:00 9,6 5,4 9 5 26 14 NW 1003,1 50 0,0
13.08.2018 06:00:00 9,6 5,6 11 6 27 14 NW 1002,5 50 0,0
13.08.2018 05:00:00 9,4 6,1 9 5 27 14 NW 1002,3 50 0,0
13.08.2018 04:00:00 9,6 6,3 8 4 19 11 WNW 1002,0 50 0,0
13.08.2018 03:00:00 9,9 6,4 8 4 21 11 WNW 1001,6 50 0,0
13.08.2018 02:00:00 9,9 6,4 9 5 24 13 NW 1001,3 50 0,0
13.08.2018 01:00:00 10,1 6,3 10 5 23 13 NW 1001,3 50 0,0
13.08.2018 00:00:00 10,2 6,0 11 6 22 12 NW 1001,1 50 0,0
12.08.2018 23:00:00 10,3 6,3 9 5 22 12 NW 1001,0 44 0,0
12.08.2018 22:00:00 9,9 6,4 7 4 21 12 WNW 1001,1 50 0,0
12.08.2018 21:00:00 10,1 6,1 9 5 26 14 WNW 1001,1 50 0,0
12.08.2018 20:00:00 11,1 5,8 11 6 33 18 WNW 1001,0 50 0,0
12.08.2018 19:00:00 12,0 5,6 13 7 39 21 WNW 1000,7 50 0,0
12.08.2018 18:00:00 13,1 7,8 10 6 26 14 W 1000,6 50 0,0
12.08.2018 17:00:00 12,1 7,2 11 6 33 18 W 1001,1 39 0,0
12.08.2018 16:00:00 12,5 6,8 13 7 27 15 W 1001,3 50 0,0
12.08.2018 15:00:00 13,1 6,7 12 6 31 17 W 1001,2 43 0,0
12.08.2018 14:00:00 13,0 6,8 14 8 34 18 W 1001,6 38 0,0
12.08.2018 13:00:00 11,6 6,5 13 7 31 17 W 1002,1 23 0,0
12.08.2018 12:00:00 12,5 6,8 11 6 32 17 W 1001,9 46 0,0
12.08.2018 11:00:00 12,6 6,0 14 8 35 19 W 1001,9 38 0,0
12.08.2018 10:00:00 11,7 5,8 12 7 29 16 W 1002,1 48 0,0
12.08.2018 09:00:00 11,2 5,9 14 7 35 19 W 1002,6 47 0,0
12.08.2018 08:00:00 10,2 5,2 16 9 35 19 W 1002,9 46 0,0
12.08.2018 07:00:00 9,3 4,9 13 7 32 17 WZW 1003,2 50 0,0
12.08.2018 06:00:00 9,1 4,7 14 8 31 17 W 1003,5 50 0,0
12.08.2018 05:00:00 8,8 4,6 14 8 33 18 W 1004,0 50 0,0
12.08.2018 04:00:00 8,9 4,5 11 6 28 15 W 1004,5 50 0,0
12.08.2018 03:00:00 8,8 4,4 13 7 34 18 W 1004,8 50 0,0
12.08.2018 02:00:00 9,2 4,4 14 7 39 21 WZW 1005,0 50 0,0
12.08.2018 01:00:00 9,3 4,7 13 7 36 19 W 1005,3 50 0,0
12.08.2018 00:00:00 9,7 4,9 13 7 22 12 WZW 1005,5 50 0,0
11.08.2018 23:00:00 9,8 5,2 11 6 29 15 W 1005,9 50 0,0
11.08.2018 22:00:00 10,0 5,8 13 7 34 18 WZW 1005,8 47 0,0
11.08.2018 21:00:00 10,2 6,0 17 9 38 21 WZW 1005,2 43 0,0
11.08.2018 20:00:00 10,9 5,4 20 11 44 24 WZW 1004,6 50 0,0
11.08.2018 19:00:00 11,1 5,6 20 11 48 26 WZW 1003,7 50 0,0
11.08.2018 18:00:00 11,0 6,1 24 13 46 25 W 1002,7 27 0,1
11.08.2018 17:00:00 12,4 7,3 22 12 58 32 WZW 1001,1 50 0,0
11.08.2018 16:00:00 13,3 8,6 24 13 50 27 ZW 999,7 45 0,0
11.08.2018 15:00:00 13,7 9,3 24 13 50 27 WZW 998,5 49 0,0
11.08.2018 14:00:00 13,7 11,6 18 10 32 18 ZW 997,2 22 0,0
11.08.2018 13:00:00 12,6 10,7 13 7 23 13 ZW 996,5 50 0,1

tt = temperatuur
td = dauwpunt
ff = windsnelheid
fx = windstoten
dd = windrichting
ppp = luchtdruk
vv = zicht
rr = neerslag

Weerstations in de omgeving